Regional Weather Roundup
Issued by NWS Boston, MA

Current Version | Previous Version | Text Only | Print | Product List | Glossary Off
Versions: 1 2 3 4 5 6 7 8 9 10 11 12 13 14 15 16 17 18 19 20 21 22 23 24 25 26 27 28 29 30 31 32 33 34 35 36 37 38 39 40 41 42 43 44 45 46 47 48 49 50
207 ASUS41 KBOX 201410 RWRBOX REGIONAL WEATHER ROUNDUP NATIONAL WEATHER SERVICE BOSTON/NORTON MA 1000 AM EDT FRI JUL 20 2018 NOTE: "FAIR" INDICATES FEW OR NO CLOUDS BELOW 12,000 FEET WITH NO SIGNIFICANT WEATHER AND/OR OBSTRUCTIONS TO VISIBILITY. MAZALL-201500- EASTERN MASSACHUSETTS CITY SKY/WX TMP DP RH WIND PRES REMARKS BOSTON FAIR 75 61 61 E7 30.18R BEVERLY FAIR 77 61 57 CALM 30.17S LAWRENCE FAIR 80 59 48 CALM 30.20S BEDFORD FAIR 77 59 53 CALM 30.17S BLUE HILL N/A 76 61 59 CALM 30.19R NORWOOD FAIR 80 62 54 CALM 30.17S MARSHFIELD FAIR 75 63 64 E6 30.18R PLYMOUTH FAIR 77 59 53 CALM 30.18S TAUNTON FAIR 79 59 50 CALM 30.17S NEW BEDFORD FAIR 79 61 53 S3 30.17S $$ MAZALL-201500- CAPE COD AND THE ISLANDS CITY SKY/WX TMP DP RH WIND PRES REMARKS FALMOUTH FAIR 77 59 53 VRB5 30.19S HYANNIS FAIR 78 59 51 CALM 30.17F CHATHAM FAIR 74 62 66 SE5 30.20S PROVINCETOWN FAIR 73 63 70 W3 30.20R NANTUCKET FAIR 69 61 75 SE9 30.20R MARTHAS VNYRD FAIR 77 58 51 CALM 30.19S $$ MAZALL-201500- CENTRAL AND WESTERN MASSACHUSETTS CITY SKY/WX TMP DP RH WIND PRES REMARKS WORCESTER SUNNY 73 55 53 VRB3 30.20S FITCHBURG FAIR 79 61 53 CALM 30.19S ORANGE FAIR 74 58 57 VRB3 30.20F SPRINGFIELD MOSUNNY 71 57 60 CALM 30.17F WESTFIELD FAIR 73 59 61 CALM 30.18F NORTH ADAMS FAIR 73 56 54 CALM 30.18F PITTSFIELD FAIR 72 56 57 CALM 30.19S $$ RIZALL-201500- RHODE ISLAND CITY SKY/WX TMP DP RH WIND PRES REMARKS PROVIDENCE FAIR 79 57 46 VRB7 30.18S NEWPORT FAIR 76 61 59 W3 30.18S BLOCK ISLAND FAIR 77 60 55 W6 30.19S SMITHFIELD FAIR 77 57 50 CALM 30.19S WESTERLY FAIR 79 63 57 SW5 30.19S $$ CTZALL-201500- CONNECTICUT CITY SKY/WX TMP DP RH WIND PRES REMARKS BRADLEY INTL FAIR 74 57 55 CALM 30.18F HARTFORD FAIR 75 60 59 NE3 30.17F BRIDGEPORT FAIR 74 64 71 E7 30.18R DANBURY FAIR 75 63 66 CALM 30.20R GROTON FAIR 74 64 71 S7 30.17F NEW HAVEN FAIR 77 64 64 S5 30.18S CHESTER FAIR 79 61 53 CALM 30.19S MERIDEN FAIR 75 60 59 CALM 30.18S WILLIMANTIC FAIR 75 63 66 CALM 30.18F OXFORD FAIR 73 61 65 W3 30.21R $$ MEZ002-015-021-024-NHZ003-005-008-011-012-014-VTZ005-008-201500- NORTHERN NEW ENGLAND CITY SKY/WX TMP DP RH WIND PRES REMARKS PORTLAND ME FAIR 74 57 55 E5 30.19R BANGOR ME FAIR 73 57 57 CALM 30.19S CONCORD NH FAIR 75 56 51 CALM 30.19S MANCHESTER NH FAIR 76 56 49 VRB3 30.17S NASHUA NH FAIR 76 59 55 CALM 30.19S PORTSMOUTH NH SUNNY 75 56 50 CALM 30.17R JAFFREY NH FAIR 75 57 53 VRB3 30.21S KEENE NH FAIR 74 58 57 CALM 30.20F BURLINGTON VT FAIR 78 53 41 S8 30.15F MT. WASHINGTON MOSUNNY 57 45 62 SE2 N/A $$ NYZ052-076-201500- EASTERN NEW YORK CITY SKY/WX TMP DP RH WIND PRES REMARKS ALBANY FAIR 74 57 55 VRB6 30.17F NEW YORK CITY FAIR 76 64 66 NE7 30.16R $$ ANZALL-201500- MARINE OBSERVATIONS STATION/POSITION TIME TEMP WIND PRES VSBY WAVE AIR SEA DIR/SP/G HT/PER (UTC) (F) (DEG/KT/KT) (MB) (MI) (FT/S) BOSTON BUOY 1350 68 68 CALM / 2 1021.7R 1/ 8 BUZZARDS BAY 1300 68 190/ 1/ 2 1022.7R NANTUCKET SOUND 1350 71 73 260/ 4/ 6 1022.3R 1 MASS BAY-STELLWA 1304 68 67 220/ 2/ 4 1020.6R 2/ 8 ISLE OF SHOALS 1300 64 CALM / 1 1021.5R S OF BLOCK IS 1343 72 N/A 2/ 8 $$ ......................KEY......................... SKY/WX - SKY CONDITION/PRESENT WEATHER TMP - TEMPERATURE IN FAHRENHEIT DWPT - DEWPOINT IN FAHRENHEIT RH - RELATIVE HUMIDITY IN PERCENT WIND - DIRECTION AND SPEED IN MPH PRES - MEAN SEA LEVEL PRESSURE IN INCHES OF HG WCI - WIND CHILL INDEX VSB - VISIBILITY IN MILES HX - HEAT INDEX TC - TEMPERATURE IN CELSIUS VRB - VARIABLE WIND DIRECTION N/A - NOT AVAILABLE

USA.gov is the U.S. government's official web portal to all federal, state and local government web resources and services.